HEBOWX Weather Reports


Display with metric or nautical units.
time (UTC)temp
F
wind
direction
speed
MPH
gust
MPH
rain 1hr
in
rain 24hr
in
rain mn
in
humidity
%
barometer
mb
20180718235351 66 351 9.0 14.0 0.00 0.00 0.00 74 1024.5
20180718234851 66 7 9.0 14.0 0.00 0.00 0.00 75 1024.8
20180718234351 66 7 10.0 14.0 0.00 0.00 0.00 76 1024.5
20180718233851 66 357 9.0 14.0 0.00 0.00 0.00 76 1024.3
20180718233351 66 29 12.0 14.0 0.00 0.00 0.00 76 1024.5
20180718232851 66 2 11.0 14.0 0.00 0.00 0.00 76 1025.0
20180718232351 66 12 9.0 14.0 0.00 0.00 0.00 77 1025.1
20180718231853 66 4 10.0 12.0 0.00 0.00 0.00 78 1025.1
20180718231351 66 350 10.0 11.0 0.00 0.00 0.00 78 1024.6
20180718230851 66 19 8.0 11.0 0.00 0.00 0.00 78 1024.6
20180718230351 66 357 7.0 15.0 0.00 0.00 0.00 78 1024.6
20180718225851 65 4 11.0 15.0 0.00 0.00 0.00 78 1024.5
20180718225351 66 1 11.0 15.0 0.00 0.00 0.00 78 1024.5
20180718224851 66 0 10.0 15.0 0.00 0.00 0.00 78 1025.1
20180718224351 66 351 10.0 15.0 0.00 0.00 0.00 78 1024.7
20180718223851 66 4 10.0 15.0 0.00 0.00 0.00 78 1024.1
20180718223351 66 19 9.0 13.0 0.00 0.00 0.00 79 1024.6
20180718222851 66 16 11.0 15.0 0.00 0.00 0.00 79 1024.1
20180718222351 66 12 11.0 15.0 0.00 0.00 0.00 79 1025.2
20180718221851 66 352 11.0 15.0 0.00 0.00 0.00 80 1024.2
20180718221351 66 12 10.0 15.0 0.00 0.00 0.00 80 1024.7
20180718220851 66 352 9.0 15.0 0.00 0.00 0.00 80 1024.8
20180718220351 66 352 9.0 15.0 0.00 0.00 0.00 80 1024.5
20180718215851 65 11 9.0 12.0 0.00 0.00 0.00 80 1023.8
20180718215350 65 1 9.0 12.0 0.00 0.00 0.00 80 1025.0
20180718214850 65 23 8.0 13.0 0.00 0.00 0.00 81 1024.6
20180718214350 66 7 9.0 13.0 0.00 0.00 0.00 81 1025.6
20180718213850 65 2 9.0 13.0 0.00 0.00 0.00 82 1025.6
20180718213351 65 19 9.0 11.0 0.00 0.00 0.00 82 1025.2
20180718212850 65 21 8.0 13.0 0.00 0.00 0.00 83 1025.6
20180718212350 65 7 9.0 13.0 0.00 0.00 0.00 84 1025.7
20180718211850 65 9 9.0 13.0 0.00 0.00 0.00 83 1025.1
20180718211350 65 4 11.0 12.0 0.00 0.00 0.00 84 1024.6
20180718210851 65 14 9.0 12.0 0.00 0.00 0.00 84 1025.1
20180718210350 65 18 11.0 12.0 0.00 0.00 0.00 84 1025.3
20180718205850 65 9 8.0 12.0 0.00 0.00 0.00 84 1025.7
20180718205351 65 355 8.0 11.0 0.00 0.00 0.00 84 1025.1
20180718204850 65 16 8.0 11.0 0.00 0.00 0.00 84 1025.7
20180718204350 65 19 8.0 11.0 0.00 0.00 0.00 84 1024.8
20180718203850 65 21 8.0 11.0 0.00 0.00 0.00 84 1024.8
20180718203350 65 29 8.0 11.0 0.00 0.00 0.00 84 1025.4
20180718202852 65 30 8.0 10.0 0.00 0.00 0.00 84 1025.0
20180718202350 65 11 6.0 9.0 0.00 0.00 0.00 84 1025.4
20180718201850 65 16 7.0 9.0 0.00 0.00 0.00 85 1025.4
20180718201350 65 8 6.0 9.0 0.00 0.00 0.00 85 1025.4
20180718200852 65 35 4.0 9.0 0.00 0.00 0.00 85 1025.4
20180718200350 65 39 6.0 8.0 0.00 0.00 0.00 85 1025.4
20180718195850 65 35 7.0 8.0 0.00 0.00 0.00 86 1026.0
20180718195351 65 32 5.0 8.0 0.00 0.00 0.00 86 1025.4
20180718194851 65 46 6.0 10.0 0.00 0.00 0.00 86 1025.3
20180718194351 65 28 2.0 10.0 0.00 0.00 0.00 87 1026.0
20180718193851 65 72 6.0 10.0 0.00 0.00 0.00 86 1025.4
20180718193351 64 35 5.0 9.0 0.00 0.00 0.00 86 1024.7
20180718192851 64 40 6.0 11.0 0.00 0.00 0.00 85 1023.7
20180718192351 64 29 5.0 11.0 0.00 0.00 0.00 87 1024.3
20180718191851 64 67 6.0 11.0 0.00 0.00 0.00 88 1024.1
20180718191350 64 25 8.0 14.0 0.00 0.00 0.00 88 1025.7
20180718190852 63 57 7.0 14.0 0.00 0.00 0.00 89 1025.3
20180718190351 63 61 4.0 14.0 0.00 0.00 0.00 89 1025.3
20180718185850 63 78 8.0 12.0 0.00 0.00 0.00 89 1025.2
20180718185350 62 61 8.0 17.0 0.00 0.00 0.00 90 1025.1
20180718184850 62 47 8.0 17.0 0.00 0.00 0.00 90 1025.2
20180718184350 62 51 8.0 17.0 0.00 0.00 0.00 88 1024.6
20180718183850 62 23 10.0 15.0 0.00 0.00 0.00 91 1025.1
20180718183351 61 50 11.0 15.0 0.00 0.00 0.00 92 1024.7
20180718182850 61 60 9.0 15.0 0.00 0.00 0.00 92 1025.1
20180718182350 61 29 9.0 15.0 0.00 0.00 0.00 92 1025.6
20180718181850 61 68 10.0 15.0 0.00 0.00 0.00 92 1024.8
20180718181350 61 58 11.0 15.0 0.00 0.00 0.00 93 1025.5
20180718180852 60 54 11.0 15.0 0.00 0.00 0.00 93 1024.8
20180718180350 60 54 8.0 18.0 0.00 0.00 0.00 93 1024.4
20180718175850 60 50 10.0 18.0 0.00 0.00 0.00 93 1024.5
20180718175350 60 51 9.0 18.0 0.00 0.00 0.00 93 1023.6
20180718174850 59 25 11.0 17.0 0.00 0.00 0.00 94 1024.8
20180718174350 60 42 14.0 17.0 0.00 0.00 0.00 94 1025.4
20180718173850 59 50 11.0 18.0 0.00 0.00 0.00 95 1024.1
20180718173350 59 36 8.0 18.0 0.00 0.00 0.00 95 1024.8
20180718172850 59 54 11.0 18.0 0.00 0.00 0.00 94 1025.3
20180718172352 58 26 12.0 14.0 0.00 0.00 0.00 92 1024.2
20180718171850 58 44 11.0 14.0 0.00 0.00 0.00 95 1024.7
20180718171350 58 42 8.0 14.0 0.00 0.00 0.00 92 1024.7
20180718170850 58 18 11.0 13.0 0.00 0.00 0.00 95 1024.3
20180718170350 58 23 8.0 19.0 0.00 0.00 0.00 95 1025.3
20180718165850 58 44 8.0 19.0 0.00 0.00 0.00 96 1024.1
20180718165350 58 29 8.0 19.0 0.00 0.00 0.00 93 1024.2
20180718164850 58 23 11.0 18.0 0.00 0.00 0.00 96 1025.2
20180718164350 58 43 11.0 14.0 0.00 0.00 0.00 96 1025.2
20180718163850 58 26 6.0 14.0 0.00 0.00 0.00 96 1024.4
20180718163351 58 18 11.0 17.0 0.00 0.00 0.00 96 1025.0
20180718162850 57 22 8.0 17.0 0.00 0.00 0.00 96 1025.0
20180718162350 57 26 11.0 17.0 0.00 0.00 0.00 96 1023.7
20180718161853 57 22 12.0 18.0 0.00 0.00 0.00 97 1024.8
20180718161350 56 39 11.0 18.0 0.00 0.00 0.00 97 1024.2
20180718160850 56 28 12.0 17.0 0.00 0.00 0.00 97 1024.8
20180718160350 56 18 15.0 22.0 0.00 0.00 0.00 97 1024.8
20180718155850 56 16 13.0 22.0 0.00 0.00 0.00 97 1024.2
20180718155350 56 5 15.0 22.0 0.00 0.00 0.00 98 1024.7
20180718154850 56 12 16.0 21.0 0.00 0.00 0.00 98 1023.2
20180718154350 55 23 16.0 21.0 0.00 0.00 0.00 98 1024.5
20180718153850 56 14 17.0 20.0 0.00 0.00 0.00 98 1024.4
20180718153350 55 11 17.0 20.0 0.00 0.00 0.00 97 1024.1
20180718152850 55 21 18.0 20.0 0.00 0.00 0.00 98 1024.0
20180718152350 54 18 14.0 20.0 0.00 0.00 0.00 98 1024.0
20180718151850 55 15 15.0 19.0 0.00 0.00 0.00 98 1024.5
20180718151350 54 18 16.0 19.0 0.00 0.00 0.00 98 1024.4
20180718150850 54 15 15.0 23.0 0.00 0.00 0.00 98 1023.7
20180718150350 54 15 14.0 23.0 0.00 0.00 0.00 98 1024.3
20180718145850 54 2 16.0 23.0 0.00 0.00 0.00 98 1023.7
20180718145350 54 14 19.0 23.0 0.00 0.00 0.00 98 1023.5
20180718144851 54 0 16.0 23.0 0.00 0.00 0.00 98 1024.1
20180718144350 54 18 15.0 23.0 0.00 0.00 0.00 98 1023.5
20180718143852 54 11 18.0 22.0 0.00 0.00 0.00 98 1023.1
20180718143350 54 22 18.0 21.0 0.00 0.00 0.00 98 1022.5
20180718142850 54 21 18.0 21.0 0.00 0.00 0.00 99 1023.8
20180718142350 53 16 17.0 21.0 0.00 0.00 0.00 99 1023.2
20180718141851 53 8 18.0 21.0 0.00 0.00 0.00 99 1023.2
20180718141350 53 19 18.0 20.0 0.00 0.00 0.00 99 1022.9
20180718140850 53 16 17.0 20.0 0.00 0.00 0.00 99 1023.1
20180718140350 53 19 18.0 22.0 0.00 0.00 0.00 98 1023.1
20180718135850 53 21 17.0 22.0 0.00 0.00 0.00 99 1022.9
20180718135350 53 12 17.0 22.0 0.00 0.00 0.00 99 1023.5
20180718134850 53 18 15.0 18.0 0.00 0.00 0.00 99 1023.1
20180718134349 53 14 17.0 21.0 0.00 0.00 0.00 99 1023.2
20180718133850 52 15 17.0 21.0 0.00 0.00 0.00 99 1022.1
20180718133350 52 4 17.0 21.0 0.00 0.00 0.00 99 1022.8
20180718132850 52 25 18.0 21.0 0.00 0.00 0.00 99 1023.4
20180718132351 52 11 18.0 23.0 0.00 0.00 0.00 99 1022.2
20180718131850 52 14 20.0 23.0 0.00 0.00 0.00 99 1022.6
20180718131350 52 11 19.0 23.0 0.00 0.00 0.00 99 1022.6
20180718130850 52 5 20.0 25.0 0.00 0.00 0.00 99 1022.5
20180718130350 52 5 21.0 25.0 0.00 0.00 0.00 99 1022.9
20180718125850 52 5 20.0 25.0 0.00 0.00 0.00 99 1021.2
20180718125350 52 7 21.0 25.0 0.00 0.00 0.00 99 1022.4
20180718124850 52 2 21.0 25.0 0.00 0.00 0.00 99 1021.4
20180718124349 52 1 22.0 28.0 0.00 0.00 0.00 99 1022.9
20180718123850 52 16 20.0 28.0 0.00 0.00 0.00 99 1021.5
20180718123349 52 18 23.0 28.0 0.00 0.00 0.00 99 1022.3
20180718122849 51 5 22.0 28.0 0.00 0.00 0.00 99 1020.9
20180718122349 52 14 22.0 28.0 0.00 0.00 0.00 99 1022.2
20180718121849 52 8 24.0 27.0 0.00 0.00 0.00 99 1020.1
20180718121349 52 5 22.0 26.0 0.00 0.00 0.00 99 1021.9
20180718120851 52 2 19.0 28.0 0.00 0.00 0.00 99 1022.1
20180718120349 52 8 24.0 28.0 0.00 0.00 0.00 99 1021.9
20180718115849 51 8 22.0 28.0 0.00 0.00 0.00 99 1022.2
20180718115349 51 12 24.0 28.0 0.00 0.00 0.00 98 1022.6
20180718114849 51 2 22.0 28.0 0.00 0.00 0.00 98 1022.6
20180718114349 51 5 23.0 29.0 0.00 0.00 0.00 98 1021.9
20180718113850 51 11 24.0 29.0 0.00 0.00 0.00 98 1021.5
20180718113349 51 18 21.0 29.0 0.00 0.00 0.00 98 1022.7
20180718112849 52 1 20.0 23.0 0.00 0.00 0.00 98 1022.6
20180718112349 52 8 20.0 23.0 0.00 0.00 0.00 98 1022.6
20180718111849 52 11 21.0 23.0 0.00 0.00 0.00 98 1021.3
20180718111351 51 7 20.0 21.0 0.00 0.00 0.00 98 1022.5
20180718110850 51 5 20.0 23.0 0.00 0.00 0.00 98 1021.8
20180718110349 52 9 20.0 23.0 0.00 0.00 0.00 98 1021.8
20180718105850 52 2 18.0 23.0 0.00 0.00 0.00 98 1022.5
20180718105349 52 5 20.0 21.0 0.00 0.00 0.00 98 1021.9
20180718104849 52 8 19.0 22.0 0.00 0.00 0.00 98 1022.1
20180718104350 51 5 21.0 22.0 0.00 0.00 0.00 98 1021.8
20180718103849 52 2 19.0 22.0 0.00 0.00 0.00 98 1021.8
20180718103349 52 1 18.0 20.0 0.00 0.00 0.00 98 1021.6
20180718102849 52 9 18.0 20.0 0.00 0.00 0.00 98 1022.4
20180718102349 52 8 18.0 20.0 0.00 0.00 0.00 98 1022.4
20180718101849 52 7 18.0 19.0 0.00 0.00 0.00 98 1022.3
20180718101349 52 7 18.0 19.0 0.00 0.00 0.00 98 1021.7
20180718100850 52 7 16.0 19.0 0.00 0.00 0.00 98 1021.8
20180718100349 52 7 18.0 19.0 0.00 0.00 0.00 98 1021.8
20180718095849 52 11 17.0 22.0 0.00 0.00 0.00 98 1022.3
20180718095349 52 7 17.0 22.0 0.00 0.00 0.00 98 1021.5
20180718094849 52 7 18.0 22.0 0.00 0.00 0.00 98 1021.6
20180718094350 52 4 18.0 20.0 0.00 0.00 0.00 98 1022.1
20180718093849 52 4 17.0 19.0 0.00 0.00 0.00 98 1021.0
20180718093349 52 8 17.0 21.0 0.00 0.00 0.00 98 1021.5
20180718092849 52 4 17.0 21.0 0.00 0.00 0.00 98 1022.2
20180718092349 52 1 16.0 21.0 0.00 0.00 0.00 98 1022.2
20180718091849 52 4 17.0 20.0 0.00 0.00 0.00 98 1021.2
20180718091349 52 7 18.0 21.0 0.00 0.00 0.00 97 1021.2
20180718090849 52 5 18.0 21.0 0.00 0.00 0.00 97 1021.5
20180718090349 52 0 17.0 21.0 0.00 0.00 0.00 97 1021.5
20180718085849 52 1 18.0 24.0 0.00 0.00 0.00 97 1021.5
20180718085349 52 4 19.0 24.0 0.00 0.00 0.00 97 1021.6
20180718084849 52 357 19.0 24.0 0.00 0.00 0.00 97 1021.7
20180718084349 52 1 18.0 21.0 0.00 0.00 0.00 97 1021.0
20180718083850 52 357 17.0 21.0 0.00 0.00 0.00 97 1021.2
20180718083349 52 4 18.0 21.0 0.00 0.00 0.00 97 1022.2
20180718082849 52 1 19.0 20.0 0.00 0.00 0.00 97 1022.1
20180718082352 52 357 19.0 21.0 0.00 0.00 0.00 97 1021.8
20180718081851 53 2 18.0 21.0 0.00 0.00 0.00 97 1020.9
20180718081349 52 355 19.0 21.0 0.00 0.00 0.00 97 1021.0
20180718080849 53 2 17.0 20.0 0.00 0.00 0.00 97 1022.1
20180718080349 53 0 19.0 21.0 0.00 0.00 0.00 97 1021.9
20180718075849 53 357 19.0 21.0 0.00 0.00 0.00 97 1021.5
20180718075349 53 2 18.0 21.0 0.00 0.00 0.00 97 1021.9
20180718074849 52 0 18.0 23.0 0.00 0.00 0.00 97 1021.2
20180718074350 53 1 19.0 23.0 0.00 0.00 0.00 96 1021.4
20180718073850 53 4 18.0 23.0 0.00 0.00 0.00 96 1021.4
20180718073349 53 0 18.0 25.0 0.00 0.00 0.00 96 1021.8
20180718072852 53 2 21.0 25.0 0.00 0.00 0.00 95 1021.3
20180718072350 53 0 20.0 25.0 0.00 0.00 0.00 96 1021.7
20180718071850 53 1 19.0 23.0 0.00 0.00 0.00 96 1021.6
20180718071349 53 2 18.0 24.0 0.00 0.00 0.00 96 1021.7
20180718070849 53 357 21.0 24.0 0.00 0.00 0.00 96 1021.7
20180718070349 53 350 19.0 24.0 0.00 0.00 0.00 96 1021.4
20180718065849 53 348 20.0 28.0 0.00 0.00 0.00 95 1021.3
20180718065349 53 350 21.0 28.0 0.00 0.00 0.00 95 1021.6
20180718064849 54 354 20.0 28.0 0.00 0.00 0.00 95 1021.2
20180718064350 54 343 21.0 27.0 0.00 0.00 0.00 95 1021.0
20180718063849 54 352 20.0 27.0 0.00 0.00 0.00 94 1020.6
20180718063349 54 357 21.0 24.0 0.00 0.00 0.00 93 1021.6
20180718062850 54 352 22.0 26.0 0.00 0.00 0.00 92 1021.2
20180718062349 55 352 19.0 26.0 0.00 0.00 0.00 91 1019.9
20180718061849 55 352 20.0 26.0 0.00 0.00 0.00 90 1021.7
20180718061349 56 351 18.0 27.0 0.00 0.00 0.00 89 1021.7
20180718060849 56 350 20.0 27.0 0.00 0.00 0.00 88 1021.5
20180718060349 56 351 19.0 27.0 0.00 0.00 0.00 88 1021.8
20180718055849 56 341 21.0 27.0 0.00 0.00 0.00 88 1020.8
20180718055349 56 343 16.0 27.0 0.00 0.00 0.00 89 1021.7
20180718054849 56 347 19.0 30.0 0.00 0.00 0.00 89 1020.8
20180718054349 56 350 17.0 30.0 0.00 0.00 0.00 90 1021.7
20180718053850 55 350 21.0 30.0 0.00 0.00 0.00 90 1021.0
20180718053351 55 350 22.0 27.0 0.00 0.00 0.00 90 1020.4
20180718052849 55 350 21.0 29.0 0.00 0.00 0.00 89 1020.8
20180718052349 56 348 19.0 29.0 0.00 0.00 0.00 89 1020.5
20180718051849 56 0 20.0 29.0 0.00 0.00 0.00 88 1021.2
20180718051349 56 345 21.0 28.0 0.00 0.00 0.00 88 1020.7
20180718050849 56 352 19.0 29.0 0.00 0.00 0.00 87 1021.3
20180718050349 56 348 16.0 29.0 0.00 0.00 0.00 87 1021.6
20180718045849 56 354 20.0 29.0 0.00 0.00 0.00 87 1021.4
20180718045349 55 1 24.0 30.0 0.00 0.00 0.00 87 1020.4
20180718044849 55 352 24.0 30.0 0.00 0.00 0.00 87 1021.6
20180718044349 55 357 24.0 30.0 0.00 0.00 0.00 87 1021.6
20180718043849 56 350 22.0 29.0 0.00 0.00 0.00 87 1019.6
20180718043349 56 345 21.0 29.0 0.00 0.00 0.00 86 1020.7
20180718042849 56 344 22.0 26.0 0.00 0.00 0.00 85 1021.4
20180718042349 56 354 21.0 28.0 0.00 0.00 0.00 85 1020.6
20180718041849 56 351 24.0 28.0 0.00 0.00 0.00 84 1021.4
20180718041349 57 2 22.0 28.0 0.00 0.00 0.00 81 1021.4
20180718040849 57 355 23.0 27.0 0.00 0.00 0.00 84 1020.9
20180718040349 57 0 17.0 27.0 0.00 0.00 0.00 82 1021.5
20180718035848 57 0 21.0 26.0 0.00 0.00 0.00 82 1021.0
20180718035348 58 1 23.0 28.0 0.00 0.00 0.00 81 1021.0
20180718034848 58 354 21.0 28.0 0.00 0.00 0.00 81 1020.9
20180718034348 58 354 22.0 28.0 0.00 0.00 0.00 80 1020.9
20180718033849 58 355 21.0 27.0 0.00 0.00 0.00 79 1020.8
20180718033349 59 7 22.0 27.0 0.00 0.00 0.00 79 1020.9
20180718032848 59 12 23.0 26.0 0.00 0.00 0.00 78 1020.6
20180718032348 59 350 21.0 26.0 0.00 0.00 0.00 78 1021.0
20180718031849 60 2 22.0 26.0 0.00 0.00 0.00 77 1020.9
20180718031348 60 1 20.0 26.0 0.00 0.00 0.00 75 1020.9
20180718030848 61 351 18.0 26.0 0.00 0.00 0.00 74 1021.4
20180718030348 61 343 22.0 26.0 0.00 0.00 0.00 72 1020.8
20180718025848 62 4 20.0 26.0 0.00 0.00 0.00 71 1021.4
20180718025349 62 351 21.0 26.0 0.00 0.00 0.00 71 1020.7
20180718024849 63 352 20.0 25.0 0.00 0.00 0.00 71 1021.3
20180718024348 63 355 23.0 25.0 0.00 0.00 0.00 70 1021.3
20180718023849 63 344 20.0 23.0 0.00 0.00 0.00 70 1020.9
20180718022848 64 355 17.0 22.0 0.00 0.00 0.00 67 1020.6
20180718022350 64 1 18.0 22.0 0.00 0.00 0.00 66 1020.9
20180718021848 64 1 18.0 22.0 0.00 0.00 0.00 68 1021.4
20180718021348 64 1 18.0 21.0 0.00 0.00 0.00 69 1021.4
20180718020849 65 345 17.0 21.0 0.00 0.00 0.00 70 1020.9
20180718020348 65 354 18.0 21.0 0.00 0.00 0.00 70 1020.3
20180718015848 65 354 16.0 21.0 0.00 0.00 0.00 70 1020.8
20180718015348 65 351 16.0 21.0 0.00 0.00 0.00 71 1020.9
20180718014849 64 350 17.0 21.0 0.00 0.00 0.00 71 1020.9
20180718014348 64 333 15.0 21.0 0.00 0.00 0.00 72 1021.4
20180718013849 64 351 16.0 20.0 0.00 0.00 0.00 72 1021.4
20180718013349 64 352 17.0 17.0 0.00 0.00 0.00 73 1020.9
20180718012848 64 352 13.0 17.0 0.00 0.00 0.00 73 1021.4
20180718012348 65 340 14.0 16.0 0.00 0.00 0.00 73 1020.5
20180718011848 65 345 12.0 16.0 0.00 0.00 0.00 72 1020.9
20180718011348 65 347 13.0 16.0 0.00 0.00 0.00 71 1020.4
20180718010848 66 345 11.0 17.0 0.00 0.00 0.00 70 1021.0
20180718010348 66 351 13.0 17.0 0.00 0.00 0.00 69 1020.0
20180718005849 65 350 13.0 17.0 0.00 0.00 0.00 68 1020.6
20180718005348 65 352 12.0 16.0 0.00 0.00 0.00 68 1021.0
20180718004849 66 345 14.0 16.0 0.00 0.00 0.00 67 1020.6
20180718004348 66 344 14.0 16.0 0.00 0.00 0.00 68 1020.0
20180718003849 66 354 12.0 16.0 0.00 0.00 0.00 68 1020.8
20180718003348 66 351 14.0 16.0 0.00 0.00 0.00 68 1021.2
20180718002848 67 344 12.0 14.0 0.00 0.00 0.00 68 1021.2
20180718002348 67 351 11.0 14.0 0.00 0.00 0.00 67 1021.0
20180718001849 68 347 12.0 14.0 0.00 0.00 0.00 66 1021.3
20180718001348 68 5 11.0 13.0 0.00 0.00 0.00 65 1020.8
20180718000849 68 340 10.0 13.0 0.00 0.00 0.00 65 1021.7
20180718000348 69 357 10.0 13.0 0.00 0.00 0.00 64 1021.7
20180717235849 70 351 10.0 13.0 0.00 0.00 0.00 62 1021.7